Weather History for Anniston, AL

Change the Weather History Date:

Sunday, February 5, 2012

  Actual Average Record
Temperature  
Mean Temperature 56 °F 45 °F  
Max Temperature 67 °F 56 °F 74 °F (1957)
Min Temperature 45 °F 34 °F 8 °F (1996)
Degree Days  
Heating Degree Days 9    
Month to date heating degree days 40  
Since 1 July heating degree days 1523  
Growing Degree Days 6 (Base 50)    
Moisture  
Dew Point 52 °F    
Average Humidity 79    
Maximum Humidity 100    
Minimum Humidity 58    
Precipitation  
Precipitation 0.00 in 0.17 in 1.64 in (2004)
Month to date precipitation 0.53 0.88  
Year to date precipitation 4.67 5.40  
Sea Level Pressure  
Sea Level Pressure 30.10 in    
Wind  
Wind Speed 5 mph (West)    
Max Wind Speed 14 mph    
Max Gust Speed 20 mph    
Visibility 10 miles    
Events      
T = Trace of Precipitation, MM = Missing Value Source: NWS Daily Summary

Daily Weather History Graph

Daily Weather History Graph

Search for Another Location

Airport:

Trip Planner

Search our weather history database for the weather conditions in past years. The results will help you decide how hot, cold, wet, or windy it might be!

Date:

Astronomy

Feb. 05, 2012 Rise Set
Actual Time 6:37 AM CST 5:18 PM CST
Civil Twilight 6:11 AM CST 5:44 PM CST
Nautical Twilight 5:41 AM CST 6:13 PM CST
Astronomical Twilight 5:12 AM CST 6:42 PM CST
Moon 3:19 PM CST (2/5) 4:43 AM CST (2/5)
Length of Visible Light 11h 32m
Length of Day
10h 41m
Waxing Gibbous, 95% of the Moon is Illuminated
Feb 5
Waxing Gibbous
Feb 7
Full
Feb 14
Last Quarter
Feb 21
New
Feb 29
First Quarter

Hourly Weather History & Observations

Time (CST) Temp. Dew Point Humidity Pressure Visibility Wind Dir Wind Speed Gust Speed Precip Events Conditions
12:18 AM 59.0 °F 57.2 °F 94% 30.07 in 10.0 mi WSW 6.9 mph - N/A   Overcast
12:53 AM 59.0 °F 57.0 °F 93% 30.06 in 10.0 mi WSW 5.8 mph - N/A   Overcast
1:28 AM 59.0 °F 57.2 °F 94% 30.06 in 10.0 mi West 5.8 mph - N/A   Overcast
1:53 AM 59.0 °F 55.9 °F 90% 30.05 in 10.0 mi West 5.8 mph - N/A   Overcast
2:32 AM 57.2 °F 55.4 °F 94% 30.06 in 10.0 mi Calm Calm - N/A   Mostly Cloudy
2:53 AM 57.0 °F 55.0 °F 93% 30.05 in 10.0 mi WSW 4.6 mph - N/A   Mostly Cloudy
3:01 AM 57.2 °F 55.4 °F 94% 30.05 in 10.0 mi SW 4.6 mph - N/A   Overcast
3:53 AM 57.9 °F 55.9 °F 93% 30.05 in 10.0 mi SW 4.6 mph - N/A   Overcast
4:53 AM 57.9 °F 55.9 °F 93% 30.06 in 10.0 mi WSW 4.6 mph - N/A   Overcast
5:05 AM 57.2 °F 55.4 °F 94% 30.06 in 10.0 mi Calm Calm - N/A   Overcast
5:53 AM 57.9 °F 55.9 °F 93% 30.07 in 10.0 mi SW 4.6 mph - N/A   Overcast
6:53 AM 57.9 °F 55.9 °F 93% 30.08 in 9.0 mi Calm Calm - N/A   Overcast
7:53 AM 57.9 °F 57.0 °F 97% 30.09 in 10.0 mi Calm Calm - N/A   Overcast
8:18 AM 59.0 °F 57.2 °F 94% 30.10 in 10.0 mi SW 4.6 mph - N/A   Overcast
8:48 AM 60.8 °F 57.2 °F 88% 30.11 in 10.0 mi West 3.5 mph - N/A   Overcast
8:53 AM 61.0 °F 57.0 °F 87% 30.11 in 10.0 mi WSW 5.8 mph - N/A   Overcast
9:03 AM 60.8 °F 57.2 °F 88% 30.11 in 10.0 mi WSW 8.1 mph - N/A   Mostly Cloudy
9:13 AM 60.8 °F 57.2 °F 88% 30.11 in 10.0 mi West 8.1 mph - N/A   Mostly Cloudy
9:53 AM 62.1 °F 54.0 °F 75% 30.11 in 10.0 mi NNW 4.6 mph - N/A   Overcast
10:12 AM 62.6 °F 53.6 °F 72% 30.11 in 10.0 mi Variable 3.5 mph - N/A   Overcast
10:44 AM 62.6 °F 53.6 °F 72% 30.12 in 10.0 mi WNW 6.9 mph - N/A   Overcast
10:53 AM 64.0 °F 54.0 °F 70% 30.12 in 10.0 mi NNW 6.9 mph - N/A   Overcast
11:53 AM 64.0 °F 52.0 °F 65% 30.11 in 10.0 mi WSW 9.2 mph - N/A   Mostly Cloudy
12:53 PM 66.0 °F 51.1 °F 59% 30.09 in 10.0 mi WNW 8.1 mph - N/A   Mostly Cloudy
1:53 PM 64.9 °F 52.0 °F 63% 30.08 in 10.0 mi West 13.8 mph 18.4 mph N/A   Partly Cloudy
2:23 PM 64.4 °F 51.8 °F 64% 30.09 in 10.0 mi WNW 13.8 mph 19.6 mph N/A   Mostly Cloudy
2:43 PM 60.8 °F 51.8 °F 72% 30.10 in 10.0 mi WNW 10.4 mph 17.3 mph N/A   Mostly Cloudy
2:53 PM 59.0 °F 50.0 °F 72% 30.11 in 10.0 mi WNW 9.2 mph - N/A   Mostly Cloudy
3:04 PM 57.2 °F 50.0 °F 77% 30.11 in 10.0 mi WNW 10.4 mph - N/A   Mostly Cloudy
3:39 PM 57.2 °F 48.2 °F 72% 30.12 in 10.0 mi West 11.5 mph - N/A   Overcast
3:53 PM 57.0 °F 48.0 °F 72% 30.13 in 10.0 mi WSW 11.5 mph - N/A   Overcast
4:53 PM 55.9 °F 46.0 °F 69% 30.13 in 10.0 mi SW 4.6 mph - N/A   Scattered Clouds
5:53 PM 54.0 °F 45.0 °F 72% 30.13 in 10.0 mi West 3.5 mph - N/A   Clear
6:53 PM 48.0 °F 45.0 °F 89% 30.14 in 10.0 mi SW 3.5 mph - N/A   Clear
7:53 PM 46.9 °F 44.1 °F 90% 30.15 in 10.0 mi Calm Calm - N/A   Clear
8:53 PM 46.9 °F 43.0 °F 86% 30.15 in 10.0 mi Calm Calm - N/A   Clear
9:53 PM 48.9 °F 43.0 °F 80% 30.16 in 10.0 mi Calm Calm - N/A   Clear
10:53 PM 46.0 °F 42.1 °F 86% 30.16 in 10.0 mi Calm Calm - N/A   Clear
11:53 PM 45.0 °F 42.1 °F 90% 30.16 in 10.0 mi Calm Calm - N/A   Clear